Flag for Azerbaijan Weather past 2 weeks in Sumqayit, Azerbaijan

Now
72 °F

Sunny.


Feels Like: 77 °F
Forecast: 54 / 72 °F
Wind: 12 mph from Northeast

Location: Baku / Bine Airport

Current Time: May 3, 2015 at 4:02:44 PM

Latest Report: May 3, 2015 at 3:30 PM


Visibility: 10 mi

Pressure: 29.89 "Hg

Humidity: 53%

Dew point: 54 °F

Location of SumqayitLocation

Historic Weather in Sumqayit — Graph

°F

Sumqayit temperature yesterday

Maximum temperature yesterday: 75 °F (at 1:00 PM)
Minimum temperature yesterday: 52 °F (at 6:30 AM)
Average temperature yesterday: 63 °F

Past Weeks' High & Low Weather Summary

 TemperatureHumidityPressure
High75 °F (May 2, 1:00 PM)100% (Apr 18, 9:00 PM)30.18 "Hg (Apr 18, 9:00 PM)
Low41 °F (Apr 21, 5:30 AM)33% (Apr 28, 4:30 PM)29.53 "Hg (Apr 20, 3:30 AM)
Average57 °F70%29.93 "Hg
* Reported Apr 18 3:00 PM — May 3 3:00 PM, Sumqayit, Weather by CustomWeather, © 2015

Note: Actual official high and low records may vary slightly from our data, if they occured in-between our weather recording intervals... More about our weather records

Advertising

Sumqayit weather history for previous 24 hours

 ConditionsComfort  
Time TempWeatherWind HumidityBarometerVisibility
3:00 PM
Sun, May 3
70 °FSunny.13 mph60%29.89 "Hg10 mi
2:30 PM72 °FSunny.13 mph53%29.89 "Hg10 mi
2:00 PM70 °FSunny.12 mph57%29.89 "Hg10 mi
1:30 PM70 °FSunny.9 mph60%29.89 "Hg10 mi
1:00 PM70 °FSunny.9 mph57%29.89 "Hg10 mi
12:30 PM68 °FSunny.7 mph60%29.89 "Hg10 mi
12:00 PM68 °FSunny.6 mph64%29.89 "Hg10 mi
11:30 AM68 °FPartly sunny.6 mph64%29.89 "HgN/A
11:00 AM66 °FPartly sunny.7 mph68%29.89 "HgN/A
10:30 AM66 °FSunny.7 mph68%29.89 "Hg10 mi
10:00 AM68 °FSunny.8 mph60%29.89 "Hg10 mi
9:30 AM66 °FSunny.7 mph64%29.92 "Hg10 mi
9:00 AM63 °FSunny.5 mph73%29.89 "Hg10 mi
8:30 AM61 °FSunny.5 mph77%29.89 "Hg10 mi
8:00 AM57 °FSunny.3 mph94%29.89 "Hg10 mi
7:30 AM55 °FClear.1 mph94%29.89 "Hg10 mi
7:00 AM55 °FClear.1 mph94%29.89 "Hg10 mi
6:30 AM55 °FClear.6 mph94%29.89 "Hg10 mi
6:00 AM55 °FClear.5 mph88%29.89 "Hg10 mi
5:30 AM55 °FClear.3 mph94%29.89 "Hg10 mi
5:00 AM55 °FClear.5 mph88%29.89 "Hg10 mi
4:30 AM55 °FClear.8 mph94%29.89 "Hg10 mi
4:00 AM55 °FClear.7 mph94%29.89 "Hg10 mi
3:30 AM54 °FClear.7 mph94%29.89 "Hg10 mi
3:00 AM55 °FClear.8 mph88%29.89 "Hg10 mi
2:30 AM55 °FClear.9 mph88%29.89 "Hg10 mi
2:00 AM55 °FClear.5 mph88%29.92 "Hg10 mi
1:30 AM55 °FClear.6 mph88%29.92 "Hg10 mi
1:00 AM57 °FClear.3 mph82%29.95 "Hg10 mi
12:30 AM57 °FClear.5 mph82%29.92 "Hg10 mi
12:00 AM59 °FClear.6 mph77%29.95 "Hg10 mi
11:30 PM
Sat, May 2
59 °FClear.3 mph82%29.95 "Hg10 mi
11:00 PM59 °FClear.5 mph77%29.95 "Hg10 mi
10:30 PM59 °FClear.6 mph82%29.95 "Hg10 mi
10:00 PM59 °FClear.9 mph82%29.95 "Hg10 mi
9:30 PM59 °FSunny.9 mph82%29.95 "Hg10 mi
9:00 PM59 °FSunny.12 mph82%29.95 "Hg10 mi
8:30 PM61 °FSunny.9 mph77%29.95 "Hg10 mi
8:00 PM61 °FSunny.13 mph77%29.95 "Hg10 mi
7:30 PM63 °FSunny.10 mph73%29.92 "Hg10 mi
7:00 PM63 °FSunny.15 mph73%29.92 "Hg10 mi
6:30 PM66 °FSunny.15 mph68%29.92 "Hg10 mi
6:00 PM66 °FSunny.14 mph68%29.92 "Hg10 mi
5:30 PM70 °FSunny.14 mph60%29.92 "Hg10 mi
5:00 PM72 °FSunny.9 mph53%29.92 "Hg10 mi
4:30 PM72 °FSunny.9 mph53%29.92 "Hg10 mi
4:00 PM73 °FSunny.10 mph53%29.92 "Hg10 mi
Weather by CustomWeather, © 2015

See weather overviewHow to use our weather pages